• In Russia
  • List of Countries
  • For 7 days
  • Water Temperature
  • Satellite Maps
  • Weather Map
  • Weather Widgets
  • user-avatar
    Login

    Hourly Weather Bangor

    Today, 11 December, Monday

    Time Temperature Precipitation Wind Pressure Humidity
    00:00 -3°C° 0 mm 6 mps 718 mmHg 95%
    01:00 -3°C° 0.3 mm 6 mps 718 mmHg 95%
    02:00 -4°C° 0.3 mm 7 mps 718 mmHg 94%
    03:00 -5°C° 0.3 mm 8 mps 718 mmHg 94%
    04:00 -4°C° 0.2 mm 8 mps 719 mmHg 93%
    05:00 -4°C° 0.2 mm 8 mps 719 mmHg 93%
    06:00 -5°C° 0 mm 8 mps 719 mmHg 92%
    07:00 -5°C° 0.1 mm 8 mps 720 mmHg 91%
    08:00 -5°C° 0.1 mm 8 mps 721 mmHg 90%
    09:00 -6°C° 0.1 mm 8 mps 722 mmHg 89%
    10:00 -5°C° 0 mm 8 mps 723 mmHg 88%
    11:00 -4°C° 0 mm 7 mps 723 mmHg 87%
    12:00 -4°C° 0 mm 7 mps 724 mmHg 86%
    13:00 -4°C° 0 mm 6 mps 725 mmHg 85%
    14:00 -4°C° 0 mm 6 mps 725 mmHg 85%
    15:00 -4°C° 0 mm 5 mps 726 mmHg 84%
    16:00 -4°C° 0 mm 5 mps 727 mmHg 85%
    17:00 -3°C° 0 mm 4 mps 727 mmHg 86%
    18:00 -3°C° 0 mm 4 mps 728 mmHg 87%
    19:00 -4°C° 0 mm 3 mps 729 mmHg 87%
    20:00 -4°C° 0 mm 3 mps 730 mmHg 87%
    21:00 -4°C° 0 mm 3 mps 731 mmHg 87%
    22:00 -4°C° 0 mm 3 mps 732 mmHg 87%
    23:00 -5°C° 0 mm 3 mps 733 mmHg 87%

    Tomorrow, 12 December, Tuesday

    Time Temperature Precipitation Wind Pressure Humidity
    00:00 -4°C° 0 mm 2 mps 734 mmHg 87%
    01:00 -4°C° 0 mm 2 mps 734 mmHg 87%
    02:00 -4°C° 0 mm 2 mps 735 mmHg 87%
    03:00 -2°C° 0 mm 1 mps 736 mmHg 86%
    04:00 -4°C° 0 mm 2 mps 736 mmHg 86%
    05:00 -3°C° 0 mm 2 mps 737 mmHg 87%
    06:00 -3°C° 0 mm 2 mps 737 mmHg 87%
    07:00 -3°C° 0 mm 2 mps 738 mmHg 88%
    08:00 -2°C° 0 mm 2 mps 738 mmHg 89%
    09:00 -1°C° 0 mm 2 mps 739 mmHg 91%
    10:00 -1°C° 0 mm 3 mps 739 mmHg 92%
    11:00 0°C° 0 mm 3 mps 739 mmHg 94%
    12:00 +1°C° 0 mm 3 mps 739 mmHg 96%
    13:00 0°C° 0 mm 4 mps 739 mmHg 95%
    14:00 0°C° 0 mm 4 mps 739 mmHg 95%
    15:00 +1°C° 0 mm 4 mps 738 mmHg 94%
    16:00 +1°C° 0.3 mm 5 mps 738 mmHg 95%
    17:00 +1°C° 0.3 mm 5 mps 738 mmHg 95%
    18:00 +1°C° 0.3 mm 6 mps 737 mmHg 95%
    19:00 +2°C° 0.3 mm 6 mps 737 mmHg 96%
    20:00 +2°C° 0.3 mm 7 mps 736 mmHg 96%
    21:00 +3°C° 0.3 mm 7 mps 736 mmHg 96%
    22:00 +3°C° 0.2 mm 7 mps 736 mmHg 96%
    23:00 +3°C° 0.2 mm 6 mps 736 mmHg 95%

    Day after tomorrow, 13 December, Wednesday

    Time Temperature Precipitation Wind Pressure Humidity
    00:00 +3°C° 0.2 mm 5 mps 736 mmHg 95%
    01:00 +3°C° 0 mm 5 mps 736 mmHg 94%
    02:00 +2°C° 0 mm 5 mps 736 mmHg 92%
    03:00 +3°C° 0 mm 4 mps 736 mmHg 91%
    04:00 +2°C° 0.4 mm 5 mps 736 mmHg 92%
    05:00 +2°C° 0.4 mm 5 mps 735 mmHg 93%
    06:00 +2°C° 0.4 mm 5 mps 735 mmHg 94%
    07:00 +2°C° 0.2 mm 5 mps 735 mmHg 94%
    08:00 +3°C° 0.2 mm 5 mps 735 mmHg 94%
    09:00 +3°C° 0.2 mm 6 mps 734 mmHg 94%
    10:00 +3°C° 0.4 mm 6 mps 734 mmHg 93%
    11:00 +4°C° 0.4 mm 7 mps 733 mmHg 92%
    12:00 +4°C° 0.4 mm 7 mps 733 mmHg 91%
    13:00 +4°C° 0.1 mm 7 mps 733 mmHg 89%
    14:00 +4°C° 0.1 mm 6 mps 732 mmHg 87%
    15:00 +3°C° 0.1 mm 6 mps 732 mmHg 86%
    16:00 +2°C° 0.1 mm 6 mps 732 mmHg 85%
    17:00 +2°C° 0.1 mm 6 mps 732 mmHg 85%
    18:00 +1°C° 0.1 mm 5 mps 732 mmHg 85%
    19:00 +2°C° 0.4 mm 7 mps 731 mmHg 84%
    20:00 +1°C° 0.4 mm 9 mps 730 mmHg 83%
    21:00 +2°C° 0.4 mm 11 mps 730 mmHg 82%
    22:00 +1°C° 0.2 mm 10 mps 730 mmHg 79%
    23:00 0°C° 0.2 mm 9 mps 730 mmHg 76%

    14 December, Thursday

    Time Temperature Precipitation Wind Pressure Humidity
    00:00 -1°C° 0.2 mm 8 mps 730 mmHg 73%
    01:00 -1°C° 0.1 mm 8 mps 730 mmHg 74%
    02:00 -1°C° 0.1 mm 8 mps 730 mmHg 75%
    03:00 -1°C° 0.1 mm 8 mps 730 mmHg 77%
    04:00 -1°C° 0.1 mm 8 mps 729 mmHg 77%
    05:00 -1°C° 0.1 mm 8 mps 729 mmHg 77%
    06:00 -1°C° 0.1 mm 8 mps 728 mmHg 77%
    07:00 -1°C° 0.1 mm 7 mps 728 mmHg 77%
    08:00 -1°C° 0.1 mm 7 mps 728 mmHg 77%
    09:00 -1°C° 0.1 mm 7 mps 728 mmHg 78%
    10:00 -1°C° 0.1 mm 7 mps 728 mmHg 77%
    11:00 0°C° 0.1 mm 7 mps 728 mmHg 76%
    12:00 +1°C° 0.1 mm 8 mps 728 mmHg 76%
    13:00 +1°C° 0.1 mm 8 mps 728 mmHg 76%
    14:00 +1°C° 0.1 mm 8 mps 728 mmHg 76%
    15:00 +1°C° 0.1 mm 8 mps 727 mmHg 76%
    16:00 +1°C° 0.2 mm 8 mps 727 mmHg 78%
    17:00 +1°C° 0.2 mm 8 mps 727 mmHg 80%
    18:00 +1°C° 0.2 mm 8 mps 726 mmHg 81%
    19:00 +1°C° 0.2 mm 9 mps 726 mmHg 80%
    20:00 +1°C° 0.2 mm 9 mps 726 mmHg 80%
    21:00 +1°C° 0.2 mm 10 mps 726 mmHg 79%
    22:00 +1°C° 0.1 mm 10 mps 727 mmHg 79%
    23:00 +1°C° 0.1 mm 10 mps 727 mmHg 79%

    15 December, Friday

    Time Temperature Precipitation Wind Pressure Humidity
    00:00 +1°C° 0.1 mm 9 mps 728 mmHg 79%
    01:00 0°C° 0 mm 9 mps 729 mmHg 79%
    02:00 0°C° 0 mm 8 mps 730 mmHg 78%
    03:00 -1°C° 0 mm 7 mps 731 mmHg 78%
    04:00 -1°C° 0 mm 7 mps 732 mmHg 78%
    05:00 -1°C° 0 mm 6 mps 733 mmHg 79%
    06:00 -1°C° 0 mm 6 mps 734 mmHg 80%
    07:00 -1°C° 0 mm 6 mps 734 mmHg 80%
    08:00 -1°C° 0 mm 6 mps 735 mmHg 80%
    09:00 -1°C° 0 mm 6 mps 736 mmHg 80%
    10:00 0°C° 0 mm 7 mps 737 mmHg 77%
    11:00 +2°C° 0 mm 7 mps 737 mmHg 75%
    12:00 +3°C° 0 mm 7 mps 738 mmHg 72%
    13:00 +2°C° 0 mm 6 mps 738 mmHg 74%
    14:00 +2°C° 0 mm 6 mps 739 mmHg 76%
    15:00 +2°C° 0 mm 5 mps 739 mmHg 77%
    16:00 +1°C° 0 mm 5 mps 740 mmHg 79%
    17:00 +1°C° 0 mm 5 mps 740 mmHg 80%
    18:00 0°C° 0 mm 5 mps 741 mmHg 82%
    19:00 0°C° 0 mm 5 mps 741 mmHg 82%
    20:00 0°C° 0 mm 5 mps 742 mmHg 83%
    21:00 0°C° 0 mm 5 mps 742 mmHg 83%
    22:00 -1°C° 0 mm 4 mps 742 mmHg 83%
    23:00 -1°C° 0 mm 4 mps 743 mmHg 83%

    16 December, Saturday

    Time Temperature Precipitation Wind Pressure Humidity
    00:00 -1°C° 0 mm 4 mps 743 mmHg 83%
    01:00 -1°C° 0 mm 4 mps 743 mmHg 84%
    02:00 -1°C° 0 mm 4 mps 743 mmHg 84%
    03:00 -1°C° 0 mm 4 mps 744 mmHg 84%
    04:00 -1°C° 0 mm 4 mps 744 mmHg 84%
    05:00 -1°C° 0 mm 3 mps 744 mmHg 85%
    06:00 -1°C° 0 mm 3 mps 744 mmHg 85%
    07:00 -1°C° 0 mm 3 mps 744 mmHg 85%
    08:00 -1°C° 0 mm 2 mps 745 mmHg 85%
    09:00 -1°C° 0 mm 2 mps 745 mmHg 84%
    10:00 +2°C° 0 mm 2 mps 745 mmHg 81%
    11:00 +2°C° 0 mm 3 mps 745 mmHg 78%
    12:00 +3°C° 0 mm 3 mps 745 mmHg 75%
    13:00 +3°C° 0.1 mm 3 mps 744 mmHg 79%
    14:00 +3°C° 0.1 mm 4 mps 744 mmHg 82%
    15:00 +3°C° 0.1 mm 4 mps 743 mmHg 85%
    16:00 +3°C° 0.5 mm 4 mps 742 mmHg 87%
    17:00 +3°C° 0.5 mm 4 mps 742 mmHg 90%
    18:00 +2°C° 0.5 mm 5 mps 741 mmHg 93%
    19:00 +3°C° 0.9 mm 5 mps 740 mmHg 93%
    20:00 +3°C° 0.9 mm 5 mps 740 mmHg 93%
    21:00 +4°C° 0.9 mm 6 mps 739 mmHg 93%
    22:00 +4°C° 0.1 mm 6 mps 739 mmHg 93%
    23:00 +5°C° 0.1 mm 6 mps 739 mmHg 93%
    Show more